www.pogodaiklimat.ru

Погода и климат >> Архив погоды >> Сенегал >> Матам


ПОГОДА в Матаме

  • Прогноз погоды в Матаме
  • Монитор погоды в Матаме

АРХИВ ПОГОДЫ в Матаме

Время (UTC), дата Ветер
(напр.,м/с)
 
Видим.   Явления Облачность Т
(С)
Тd
(С)
f
(%)
Тe
(С)
Тes
(С)
Комфортность P
(гПа)
Po
(гПа)
Тmin
(С)
Tmax
(С)
R
(мм)
R24
(мм)
S
(см)
18 17.08 С 1 10 км {гроза} 5/3 480 м
[Sc Ac trans Ci sp]
+36.4 +22.7 45 +46 +47 опасность
перегрева
1008.4 1006.5 +37.0
21 17.08 СЗ 1 10 км зарница 5/1 900 м
[Cb calv Ci sp]
+32.5 +24.0 61 +44 +44 опасность
перегрева
1009.4 1007.5
00 18.08 З 2 10 км 6/0
[Ac trans]
+30.5 +24.1 69 +42 +42 опасность
перегрева
1011.2 1009.3
03 18.08 СЗ 2 10 км ливневой дождь, в посл. час гроза 9/3 400 м
[Cb cap Ac As]
+27.5 +23.2 77 +37 +37 очень
душно
1010.9 1009.0
06 18.08 СЗ 3 10 км {гроза, дождь} 9/0
[Ac As]
+25.0 +22.3 85 +33 +33 очень
душно
1010.8 1008.9 +24.0 4
09 18.08 СЗ 1 10 км 4/0
[Ac trans Ci sp]
+26.7 +23.5 83 +36 +43 очень
душно
1011.8 1009.9
12 18.08 С 1 10 км 3/0
[Ci sp]
+32.5 +23.2 58 +43 +66 опасность
перегрева
1012.5 1010.6
15 18.08 В 1 10 км 6/3 600 м
[Sc Ci sp]
+36.3 +21.9 43 +44 +56 опасность
перегрева
1010.3 1008.4
18 18.08 ЮЗ 3 10 км 9/1 600 м
[Sc Ac trans Ci sp]
+34.8 +24.1 54 +47 +47 опасность
перегрева
1009.9 1008.0 +37.3
21 18.08 ЮЗ 2 10 км слаб. дождь 10/5 300 м
[Sc Ac As]
+25.4 +23.4 89 +34 +34 очень
душно
1011.0 1009.1
00 19.08 ЮВ 1 10 км {гроза, дождь} 9/0
[Ac As]
+25.5 +24.4 94 +36 +36 очень
душно
1013.1 1011.2 4
03 19.08 З 1 10 км 9/0
[Ac As]
+25.7 +24.3 92 +36 +36 очень
душно
1011.3 1009.4
06 19.08 штиль 0 8000 м слаб. дождь 9/0
[Ac As]
+25.7 +24.4 93 +36 +36 очень
душно
1011.8 1009.9 +24.8 4
09 19.08 СЗ 1 12 км 6/1 400 м
[Sc Ac trans]
+27.0 +24.1 84 +37 +42 очень
душно
1012.7 1010.8
12 19.08 С 2 12 км 5/3 480 м
[Sc Ac trans Ci sp]
+32.4 +25.4 67 +47 +59 опасность
перегрева
1013.1 1011.2
15 19.08 В 1 12 км 5/3 480 м
[Sc Ac trans]
+35.0 +24.8 56 +48 +59 опасность
перегрева
1011.5 1009.6
18 19.08 В 1 12 км 6/1 400 м
[Sc Ac trans]
+35.7 +24.2 52 +48 +49 опасность
перегрева
1010.4 1008.5 +35.0 0.2
21 19.08 С 1 10 км 3/0
[Ac trans]
+33.0 +23.8 59 +45 +45 опасность
перегрева
1011.3 1009.4
00 20.08 СЗ 1 10 км 3/0
[Ac trans]
+31.1 +24.0 66 +43 +43 опасность
перегрева
1011.9 1010.0
03 20.08 С 1 10 км ясно +30.0 +23.1 67 +40 +40 очень
душно
1011.0 1009.1
06 20.08 штиль 0 10 км ясно +28.5 +23.5 74 +39 +39 очень
душно
1010.9 1009.0 +28.0 0.2
09 20.08 С 2 10 км 3/0
[Ci sp]
+29.5 +23.0 68 +39 +46 очень
душно
1011.9 1010.0
12 20.08 С 2 10 км 5/0
[Ci sp]
+34.1 +22.4 51 +43 +62 опасность
перегрева
1012.5 1010.6
15 20.08 С 1 10 км 5/0
[Ci sp]
+38.5 +20.6 36 +45 +62 опасность
перегрева
1008.2 1006.3
18 20.08 ЮВ 1 10 км 6/5 480 м
[Sc Ci sp]
+37.5 +22.2 41 +46 +47 опасность
перегрева
1007.8 1005.9 +39.6
21 20.08 СВ 1 10 км 4/0
[Ci sp]
+34.0 +24.1 56 +46 +46 опасность
перегрева
1009.0 1007.1
00 21.08 штиль 0 10 км 4/0
[Ac trans Ci sp]
+32.0 +24.2 63 +44 +44 опасность
перегрева
1009.9 1008.0
03 21.08 С 2 10 км 6/0
[Ac trans]
+31.5 +24.3 66 +44 +44 опасность
перегрева
1008.4 1006.5
06 21.08 С 1 10 км 3/0
[Ac trans]
+29.7 +22.9 67 +40 +40 очень
душно
1009.7 1007.8 +29.0
09 21.08 С 4 10 км 4/3 480 м
[Sc Ac trans Ci sp]
+31.0 +23.9 66 +43 +45 опасность
перегрева
1011.9 1010.0
12 21.08 З 2 10 км гроза без осадков 8/3 300 м
[Cb cap Ac As]
+29.8 +24.4 73 +42 +49 опасность
перегрева
1011.5 1009.6
15 21.08 Ю 3 10 км гроза без осадков 9/3 300 м
[Cb cap Ac As]
+34.3 +22.8 51 +44 +48 опасность
перегрева
1009.8 1007.9
18 21.08 Ю 2 10 км слаб. дождь {гроза} 9/0
[Ac As]
+30.0 +24.2 71 +42 +42 опасность
перегрева
1008.4 1006.5 +35.0 0.0
21 21.08 Ю 1 10 км зарница 9/1 900 м
[Cb calv Ac As]
+29.4 +25.0 77 +42 +42 опасность
перегрева
1010.4 1008.5
00 22.08 ЮЗ 2 10 км 8/0
[Ac As]
+27.8 +24.4 82 +39 +39 очень
душно
1010.2 1008.3 0.0
03 22.08 Ю 1 10 км 9/0
[Ac As]
+28.0 +24.4 81 +39 +39 очень
душно
1009.4 1007.5
06 22.08 ЮЗ 2 10 км 9/0
[Ac As]
+26.7 +23.8 84 +37 +37 очень
душно
1010.4 1008.5 +25.8 0.0
09 22.08 Ю 2 10 км 9/9 480 м
[Sc]
+27.4 +24.3 83 +38 +39 очень
душно
1011.9 1010.0
12 22.08 ЮЗ 2 10 км 9/8 480 м
[Sc Ac trans]
+30.9 +23.9 66 +42 +45 опасность
перегрева
1011.7 1009.8
15 22.08 Ю 2 10 км 8/6 480 м
[Sc Ac trans]
+32.5 +23.2 58 +43 +47 опасность
перегрева
1009.5 1007.6
18 22.08 Ю 2 10 км 8/4 480 м
[Sc Ac trans]
+31.1 +23.6 64 +42 +43 опасность
перегрева
1009.4 1007.5 +34.1
21 22.08 ЮЗ 2 10 км 8/0
[Ac trans]
+30.0 +22.8 65 +40 +40 очень
душно
1012.4 1010.5
00 23.08 С 2 10 км 8/0
[Ac trans]
+28.5 +23.5 74 +39 +39 очень
душно
1013.5 1011.5
03 23.08 СВ 1 10 км 8/0
[Ac trans]
+27.0 +23.4 81 +37 +37 очень
душно
1013.8 1011.9
06 23.08 В 2 10 км 8/0
[Ac trans]
+26.0 +23.1 84 +35 +35 очень
душно
1013.2 1011.3 +25.0
09 23.08 ЮЗ 2 10 км 6/6 480 м
[Sc]
+27.5 +23.2 77 +37 +40 очень
душно
1013.8 1011.9
12 23.08 З 2 10 км 6/6 480 м
[Sc]
+32.2 +22.5 57 +42 +50 опасность
перегрева
1013.7 1011.8
15 23.08 СЗ 5 10 км 8/8 480 м
[Sc]
+35.0 +22.3 48 +44 +46 опасность
перегрева
1010.9 1009.0
18 23.08 СЗ 4 10 км 6/4 480 м
[Sc Ac trans]
+34.5 +21.7 47 +42 +43 опасность
перегрева
1010.5 1008.6 +36.0
21 23.08 СЗ 2 10 км 3/0
[Ac trans]
+32.0 +22.6 58 +42 +42 опасность
перегрева
1012.6 1010.7
00 24.08 З 4 10 км ясно +30.0 +23.5 68 +41 +41 опасность
перегрева
1014.2 1012.3
03 24.08 СЗ 3 10 км 8/0 300 м
[Ac As]
+29.0 +23.2 71 +39 +39 очень
душно
1012.5 1010.6
06 24.08 СЗ 2 10 км 4/0
[Ac trans Ci sp]
+27.5 +23.9 81 +38 +38 очень
душно
1012.6 1010.7 +27.0
09 24.08 СЗ 2 10 км 6/6 400 м
[Sc]
+28.6 +23.7 75 +39 +42 очень
душно
1013.9 1012.0
12 24.08 СЗ 3 10 км 3/3 400 м
[Sc Ci sp]
+33.5 +21.7 50 +42 +54 опасность
перегрева
1013.2 1011.3
15 24.08 СЗ 4 10 км 5/5 480 м
[Sc Ci sp]
+37.0 +21.9 42 +45 +50 опасность
перегрева
1011.0 1009.1

 

Местоположение метеостанции Матам (Сенегал): широта 15.65 долгота -13.25 высота над уровнем моря 17 м.

В архиве по умолчанию представлена погода в Матаме за последнюю неделю. Архивные данные за месяц целиком и за предыдущие месяцы, начиная с января 2011 года, Вы можете получить, выбрав интересующий диапазон дат из раскрывающегося списка и нажав кнопку "Ввод!".


*Определитесь, кто Вы:
робот инопланетянин человек

Внимание! Время в таблицах - всемирное. Для получения местного времени необходимо прибавить поправку, которая равна 0 ч.

Смотрите также архив погоды в соседних городах и на ближайших метеорологических станциях:

Погода в Каэди (Мавритания) (62 км)
Погода в Фатото (Гамбия) (198 км)
Погода в Лингере (Сенегал) (202 км)
Погода в Подоре (Сенегал) (214 км)
Погода в Тамбакунде (Сенегал) (214 км)
Погода в Киффе (Мавритания) (226 км)
Погода в Каесе (Мали) (238 км)
Погода в Бутилимите (Мавритания) (259 км)
Погода в Джорджтауне (Гамбия) (287 км)
Погода в Росо (Мавритания) (289 км)

Пояснения к столбцам:

Ветер - указаны скорость ветра в м/с - средняя за 10 мин, порывы в срок и между сроками (в фигурных скобках) и направление, откуда дует ветер: С - северный, СВ - северо-восточный, В - восточный, ЮВ - юго-восточный, Ю - южный, ЮЗ - юго-западный, З - западный, СЗ - северо-западный.
Видимость - горизонтальная дальность видимости в метрах или километрах. При видимости от 1 до 10 км при отсутствии осадков обычно наблюдается дымка, при ухудшении видимости до 1 км и менее - туман. В сухую погоду видимость может ухудшаться дымом, пылью или мглою.
Явления - указаны атмосферные явления, наблюдавшиеся в срок или в последний час перед сроком; фигурными скобками обозначены явления, наблюдавшиеся между сроками (за 1-3 часа до срока); квадратными скобками обозначены град или гололедные отложения с указанием их диаметра в мм.
Облачность - указаны через наклонную черту общая и нижняя облачность в баллах и высота нижней границы облаков в метрах; квадратными скобками обозначены формы облаков: Ci - перистые, Cs - перисто-слоистые, Cc - перисто-кучевые, Ac - высококучевые, As - высокослоистые, Sc - слоисто-кучевые, Ns - слоисто-дождевые, Cu - кучевые, Cb - кучево-дождевые. Подробнее классификацию облаков см. в Атласе облаков (PDF).
T - Температура воздуха - температура, измеренная на высоте 2 м над землей.
Td - Температура точки росы - температура, при понижении до которой содержащийся в воздухе водяной пар достигнет насыщения.
f - Относительная влажность воздуха - влажноcть воздуха, измеренная на высоте 2 м над землей.
Te - Эффективная температура - температура, которую ощущает одетый по сезону человек в тени. Характеристика душности погоды. При расчете учитывается влияние влажности воздуха и скорости ветра на теплоощущения человека.
Tes - Эффективная температура на солнце - температура, которую ощущает человек, с поправкой на солнечный нагрев. Характеристика знойности погоды. Зависит от высоты солнца над горизонтом, облачности и скорости ветра. Ночью, в пасмурную погоду, а также при ветре 12 м/с и более поправка равна нулю.
P - Атмосферное давление - приведенное к уровню моря атмосферное давление.
Po - Атмосферное давление - измеренное на уровне метеостанции атмосферное давление.
Tmin - Минимальная температура - минимум температуры воздуха на высоте 2 м над землей.
Tmax - Максимальная температура - максимум температуры воздуха на высоте 2 м над землей.
R - Количество осадков - Количество выпавших осадков за период времени, мм. При наведении курсора мыши на число - период времени, за который выпало указанное количество осадков.
R24 - Количество осадков - Количество выпавших осадков за 24 часа, мм.
S - Снежный покров - Высота снежного покрова, см. При наведении курсора мыши на число - состояние снежного покрова и степень покрытия местности в баллах.